Gulkana, AK

4:48 PM AKDT on September 23, 2017 (GMT -0800)
Gulkana

Weather History for PAGK - October, 2012

Change the Weather History Date:

Wednesday, October 31, 2012

  Actual Average Record
Temperature  
Mean Temperature 7 °F -  
Max Temperature 16 °F 22 °F 47 °F (1954)
Min Temperature -2 °F 9 °F -17 °F (1956)
Degree Days  
Heating Degree Days 58    
Moisture  
Dew Point 3 °F    
Average Humidity 78    
Maximum Humidity 91    
Minimum Humidity 45    
Precipitation  
Precipitation 0.00 in - - ()
Snow  
Snow 0.00 in - - ()
Snow Depth 1.00 in    
Sea Level Pressure  
Sea Level Pressure 29.71 in    
Wind  
Wind Speed 3 mph (ENE)    
Max Wind Speed 8 mph    
Max Gust Speed -    
Visibility 9 miles    
Events Snow    
Averages and records for this station are not official NWS values.
T = Trace of Precipitation, MM = Missing Value Source: NWS Daily Summary

Daily Weather History Graph

Daily Weather History Graph

Search for Another Location

Airport or City:

Trip Planner

Search our weather history database for the weather conditions in past years. The results will help you decide how hot, cold, wet, or windy it might be!

Date:

Astronomy

Oct. 31, 2012 Rise Set
Actual Time 9:13 AM AKDT 5:36 PM AKDT
Civil Twilight 8:24 AM AKDT 6:25 PM AKDT
Nautical Twilight 7:31 AM AKDT 7:18 PM AKDT
Astronomical Twilight 6:39 AM AKDT 8:09 PM AKDT
Moon 6:11 PM AKDT (10/31) 11:44 AM AKDT (10/31)
Length of Visible Light 10h 00m
Length of Day
8h 23m
Waning Gibbous, 96% of the Moon is Illuminated
Oct 31
Waning Gibbous
Nov 6
Last Quarter
Nov 13
New
Nov 20
First Quarter
Nov 28
Full

Hourly Weather History & Observations

Time (AKDT) Temp. Windchill Dew Point Humidity Pressure Visibility Wind Dir Wind Speed Gust Speed Precip Events Conditions
12:53 AM 10.9 °F 4.7 °F 6.1 °F 81% 29.65 in 10.0 mi ENE 3.5 mph - N/A   Overcast
1:53 AM 12.0 °F 4.1 °F 7.0 °F 80% 29.65 in 10.0 mi ESE 4.6 mph - 0.00 in   Overcast
2:08 AM 12.2 °F 2.9 °F 6.8 °F 79% 29.54 in 1.8 mi NE 5.8 mph - 0.00 in Snow Light Snow
2:23 AM 12.2 °F 1.7 °F 8.6 °F 85% 29.54 in 3.0 mi NE 6.9 mph - 0.00 in Snow Light Snow
2:53 AM 12.9 °F 3.8 °F 8.1 °F 81% 29.68 in 10.0 mi NE 5.8 mph - 0.00 in   Overcast
2:58 AM 12.2 °F 0.7 °F 8.6 °F 85% 29.55 in 10.0 mi NNE 8.1 mph - N/A   Overcast
3:19 AM 12.2 °F 0.7 °F 6.8 °F 79% 29.55 in 9.0 mi NE 8.1 mph - 0.00 in Snow Light Snow
3:53 AM 12.9 °F 5.2 °F 6.1 °F 74% 29.68 in 9.0 mi NE 4.6 mph - 0.00 in   Mostly Cloudy
4:11 AM 12.2 °F 2.9 °F 6.8 °F 79% 29.56 in 10.0 mi NE 5.8 mph - N/A   Partly Cloudy
4:53 AM 10.9 °F 4.7 °F 5.0 °F 77% 29.67 in 10.0 mi WNW 3.5 mph - N/A   Clear
5:53 AM 10.0 °F - 1.9 °F 70% 29.65 in 10.0 mi Calm Calm - N/A   Mostly Cloudy
6:53 AM 8.1 °F - 5.0 °F 87% 29.65 in 10.0 mi Calm Calm - N/A   Mostly Cloudy
7:53 AM -0.0 °F - -2.0 °F 91% 29.65 in 10.0 mi Calm Calm - N/A   Scattered Clouds
8:53 AM 3.0 °F - -0.9 °F 84% 29.67 in 9.0 mi Calm Calm - N/A   Overcast
9:53 AM -0.0 °F - -2.9 °F 88% 29.69 in 10.0 mi Calm Calm - 0.00 in   Overcast
10:53 AM 3.0 °F - -0.9 °F 84% 29.70 in 10.0 mi Calm Calm - N/A   Overcast
11:53 AM 10.0 °F 1.8 °F 5.0 °F 80% 29.72 in 10.0 mi North 4.6 mph - N/A   Overcast
12:53 PM 12.0 °F 5.9 °F 5.0 °F 73% 29.74 in 9.0 mi ESE 3.5 mph - 0.00 in Snow Light Snow
1:53 PM 12.9 °F - 6.1 °F 74% 29.75 in 10.0 mi Calm Calm - 0.00 in   Mostly Cloudy
2:53 PM 15.1 °F - 5.0 °F 64% 29.74 in 10.0 mi Calm Calm - N/A   Mostly Cloudy
3:53 PM 16.0 °F - 3.9 °F 59% 29.74 in 10.0 mi Calm Calm - N/A   Scattered Clouds
4:53 PM 12.0 °F 5.9 °F 3.9 °F 70% 29.76 in 10.0 mi South 3.5 mph - N/A   Mostly Cloudy
5:53 PM 9.0 °F - 3.0 °F 77% 29.78 in 10.0 mi Calm Calm - N/A   Mostly Cloudy
6:53 PM 8.1 °F - 3.0 °F 80% 29.81 in 10.0 mi Calm Calm - N/A   Mostly Cloudy
7:53 PM 8.1 °F 1.4 °F 3.9 °F 83% 29.83 in 10.0 mi ESE 3.5 mph - N/A   Overcast
8:53 PM 8.1 °F - 3.0 °F 80% 29.85 in 10.0 mi Calm Calm - N/A   Overcast
9:27 PM 5.0 °F - 1.4 °F 85% 29.69 in 10.0 mi Calm Calm - N/A   Overcast
9:53 PM 7.0 °F - 3.0 °F 84% 29.87 in 10.0 mi Calm Calm - N/A   Overcast
10:53 PM -0.0 °F - -2.0 °F 91% 29.91 in 10.0 mi Calm Calm - N/A   Clear
11:53 PM -2.9 °F - -7.1 °F 82% 29.91 in 10.0 mi Calm Calm - N/A   Clear